Mojave, CA

2:15 PM PST on December 12, 2019 (GMT -0800)
Mojave

Weather History for KMHV - October, 2019

Change the Weather History Date:

Wednesday, October 16, 2019

  Actual Average Record
Temperature  
Mean Temperature 66 °F -  
Max Temperature 80 °F 77 °F 93 °F (1991)
Min Temperature 51 °F 47 °F 36 °F (1984)
Growing Degree Days 16 (Base 50)    
Moisture  
Dew Point 24 °F    
Average Humidity 20    
Maximum Humidity 33    
Minimum Humidity 11    
Precipitation  
Precipitation 0.00 in - - ()
Sea Level Pressure  
Sea Level Pressure 30.01 in    
Wind  
Wind Speed 6 mph (NW)    
Max Wind Speed 20 mph    
Max Gust Speed 25 mph    
Visibility 10 miles    
Events      
Averages and records for this station are not official NWS values.
T = Trace of Precipitation, MM = Missing Value Source: NWS Daily Summary

Daily Weather History Graph

Daily Weather History Graph

Search for Another Location

Airport or City:

Astronomy

Oct. 16, 2019 Rise Set
Actual Time 6:59 AM PDT 6:16 PM PDT
Civil Twilight 6:33 AM PDT 6:41 PM PDT
Nautical Twilight 6:04 AM PDT 7:11 PM PDT
Astronomical Twilight 5:34 AM PDT 7:40 PM PDT
Moon 8:18 PM PDT (10/16) 9:30 AM PDT (10/16)
Length of Visible Light 12h 08m
Length of Day
11h 17m
Waning Gibbous, 92% of the Moon is Illuminated
Oct 16
Waning Gibbous
Oct 21
Last Quarter
Oct 27
New
Nov 4
First Quarter
Nov 12
Full

Hourly Weather History & Observations

Time (PDT) Temp. Dew Point Humidity Pressure Visibility Wind Dir Wind Speed Gust Speed Precip Events Conditions
12:00 AM 59.0 °F 17.6 °F 20% 30.09 in 10.0 mi NNW 10.4 mph - N/A   Clear
12:20 AM 60.8 °F 19.4 °F 20% 30.09 in 10.0 mi NNW 10.4 mph - N/A   Clear
12:40 AM 60.8 °F 21.2 °F 22% 30.09 in 10.0 mi NNW 10.4 mph - N/A   Partly Cloudy
1:20 AM 60.8 °F 21.2 °F 22% 30.08 in 10.0 mi NNW 11.5 mph - N/A   Scattered Clouds
1:40 AM 60.8 °F 21.2 °F 22% 30.08 in 10.0 mi NNW 10.4 mph - N/A   Partly Cloudy
2:00 AM 59.0 °F 19.4 °F 22% 30.08 in 10.0 mi NNW 10.4 mph - N/A   Partly Cloudy
2:20 AM 59.0 °F 21.2 °F 23% 30.08 in 10.0 mi NNW 8.1 mph - N/A   Partly Cloudy
2:40 AM 57.2 °F 21.2 °F 25% 30.08 in 10.0 mi NNW 9.2 mph - N/A   Partly Cloudy
3:00 AM 57.2 °F 21.2 °F 25% 30.08 in 10.0 mi NNW 9.2 mph - N/A   Scattered Clouds
3:20 AM 57.2 °F 21.2 °F 25% 30.07 in 10.0 mi NNW 9.2 mph - N/A   Scattered Clouds
3:40 AM 55.4 °F 23.0 °F 29% 30.07 in 10.0 mi NW 5.8 mph - N/A   Mostly Cloudy
4:00 AM 55.4 °F 24.8 °F 31% 30.08 in 10.0 mi Calm Calm - N/A   Mostly Cloudy
4:20 AM 57.2 °F 24.8 °F 29% 30.07 in 10.0 mi Calm Calm - N/A   Mostly Cloudy
4:40 AM 53.6 °F 23.0 °F 30% 30.08 in 10.0 mi West 4.6 mph - N/A   Mostly Cloudy
5:00 AM 55.4 °F 24.8 °F 31% 30.07 in 10.0 mi NNW 4.6 mph - N/A   Mostly Cloudy
5:20 AM 57.2 °F 24.8 °F 29% 30.08 in 10.0 mi NW 8.1 mph - N/A   Scattered Clouds
5:40 AM 55.4 °F 24.8 °F 31% 30.08 in 10.0 mi NNW 5.8 mph - N/A   Partly Cloudy
6:00 AM 53.6 °F 23.0 °F 30% 30.07 in 6.0 mi NNW 8.1 mph - N/A   Haze
6:20 AM 55.4 °F 24.8 °F 31% 30.07 in 9.0 mi NW 5.8 mph - N/A   Mostly Cloudy
6:40 AM 53.6 °F 24.8 °F 33% 30.08 in 9.0 mi WNW 5.8 mph - N/A   Partly Cloudy
7:00 AM 53.6 °F 24.8 °F 33% 30.08 in 10.0 mi NW 5.8 mph - N/A   Clear
7:20 AM 51.8 °F 23.0 °F 33% 30.08 in 7.0 mi Calm Calm - N/A   Clear
7:40 AM 55.4 °F 23.0 °F 29% 30.09 in 6.0 mi Calm Calm - N/A   Haze
8:00 AM 60.8 °F 23.0 °F 23% 30.09 in 5.0 mi Calm Calm - N/A   Haze
8:20 AM 62.6 °F 24.8 °F 24% 30.09 in 10.0 mi Calm Calm - N/A   Clear
8:40 AM 64.4 °F 23.0 °F 21% 30.10 in 10.0 mi Calm Calm - N/A   Clear
9:00 AM 64.4 °F 21.2 °F 19% 30.10 in 10.0 mi Calm Calm - N/A   Clear
9:20 AM 66.2 °F 21.2 °F 18% 30.10 in 10.0 mi Calm Calm - N/A   Clear
9:40 AM 68.0 °F 21.2 °F 17% 30.10 in 10.0 mi Calm Calm - N/A   Clear
10:00 AM 69.8 °F 19.4 °F 15% 30.09 in 10.0 mi Calm Calm - N/A   Clear
10:20 AM 71.6 °F 21.2 °F 15% 30.08 in 10.0 mi Variable 3.5 mph - N/A   Clear
10:40 AM 71.6 °F 19.4 °F 14% 30.08 in 10.0 mi East 3.5 mph - N/A   Clear
11:00 AM 73.4 °F 19.4 °F 13% 30.08 in 10.0 mi Calm Calm - N/A   Clear
11:20 AM 75.2 °F 17.6 °F 11% 30.07 in 10.0 mi East 3.5 mph - N/A   Clear
11:40 AM 77.0 °F 19.4 °F 12% 30.07 in 10.0 mi NE 4.6 mph - N/A   Clear
12:00 PM 77.0 °F 21.2 °F 12% 30.06 in 10.0 mi ENE 4.6 mph - N/A   Clear
12:20 PM 77.0 °F 19.4 °F 12% 30.05 in 10.0 mi Variable 4.6 mph - N/A   Clear
12:40 PM 78.8 °F 21.2 °F 12% 30.04 in 10.0 mi Variable 4.6 mph - N/A   Clear
1:00 PM 78.8 °F 21.2 °F 12% 30.02 in 10.0 mi NNE 6.9 mph - N/A   Clear
1:20 PM 80.6 °F 21.2 °F 11% 30.00 in 10.0 mi Variable 4.6 mph - N/A   Clear
1:40 PM 80.6 °F 21.2 °F 11% 29.99 in 10.0 mi ENE 6.9 mph - N/A   Clear
2:00 PM 78.8 °F 21.2 °F 12% 29.98 in 10.0 mi Calm Calm - N/A   Clear
2:20 PM 80.6 °F 23.0 °F 12% 29.97 in 10.0 mi NNE 5.8 mph 11.5 mph N/A   Clear
2:40 PM 80.6 °F 23.0 °F 12% 29.96 in 10.0 mi Calm Calm - N/A   Clear
3:00 PM 80.6 °F 23.0 °F 12% 29.95 in 10.0 mi East 5.8 mph - N/A   Clear
3:20 PM 80.6 °F 23.0 °F 12% 29.95 in 10.0 mi ESE 4.6 mph - N/A   Clear
3:40 PM 80.6 °F 23.0 °F 12% 29.94 in 10.0 mi Calm Calm - N/A   Clear
4:00 PM 80.6 °F 23.0 °F 12% 29.93 in 10.0 mi Calm Calm - N/A   Clear
4:20 PM 80.6 °F 24.8 °F 13% 29.93 in 10.0 mi Calm Calm - N/A   Clear
4:40 PM 78.8 °F 24.8 °F 14% 29.92 in 10.0 mi Calm Calm - N/A   Clear
5:00 PM 80.6 °F 24.8 °F 13% 29.91 in 10.0 mi Calm Calm - N/A   Clear
5:20 PM 78.8 °F 24.8 °F 14% 29.91 in 10.0 mi Calm Calm - N/A   Clear
5:40 PM 80.6 °F 24.8 °F 13% 29.90 in 10.0 mi Calm Calm - N/A   Clear
6:00 PM 78.8 °F 24.8 °F 14% 29.89 in 10.0 mi Calm Calm - N/A   Clear
6:20 PM 77.0 °F 24.8 °F 14% 29.90 in 10.0 mi Calm Calm - N/A   Clear
6:40 PM 75.2 °F 24.8 °F 15% 29.90 in 10.0 mi Calm Calm - N/A   Clear
7:00 PM 66.2 °F 21.2 °F 18% 29.90 in 10.0 mi West 4.6 mph - N/A   Clear
7:20 PM 64.4 °F 21.2 °F 19% 29.91 in 10.0 mi West 3.5 mph - N/A   Clear
7:40 PM 64.4 °F 21.2 °F 19% 29.91 in 8.0 mi West 5.8 mph - N/A   Clear
8:00 PM 66.2 °F 26.6 °F 23% 29.90 in 10.0 mi West 8.1 mph - N/A   Clear
8:20 PM 68.0 °F 30.2 °F 24% 29.90 in 10.0 mi WSW 6.9 mph - N/A   Clear
8:40 PM 68.0 °F 30.2 °F 24% 29.90 in 10.0 mi West 6.9 mph - N/A   Clear
9:00 PM 69.8 °F 32.0 °F 25% 29.89 in 10.0 mi WNW 12.7 mph - N/A   Clear
9:20 PM 71.6 °F 30.2 °F 22% 29.89 in 10.0 mi WNW 12.7 mph 23.0 mph N/A   Clear
9:40 PM 71.6 °F 32.0 °F 23% 29.89 in 10.0 mi WNW 17.3 mph 25.3 mph N/A   Clear
10:00 PM 71.6 °F 32.0 °F 23% 29.88 in 10.0 mi WNW 16.1 mph 25.3 mph N/A   Clear
10:20 PM 71.6 °F 30.2 °F 22% 29.89 in 10.0 mi WNW 13.8 mph 21.9 mph N/A   Clear
10:40 PM 71.6 °F 30.2 °F 22% 29.88 in 10.0 mi WNW 19.6 mph - N/A   Clear
11:00 PM 71.6 °F 30.2 °F 22% 29.87 in 10.0 mi WNW 18.4 mph - N/A   Partly Cloudy
11:40 PM 69.8 °F 28.4 °F 21% 29.87 in 10.0 mi WNW 11.5 mph - N/A   Partly Cloudy